Tillbaka till svenska Fidonet
English   Information   Debug  
FILM   0/18
FNEWS_PUBLISH   5090
FN_SYSOP   42250
FN_SYSOP_OLD1   71952
FTP_FIDO   0/2
FTSC_PUBLIC   0/13992
FUNNY   0/4886
GENEALOGY.EUR   0/71
GET_INFO   105
GOLDED   0/408
HAM   1049/16975
HOLYSMOKE   0/6791
HOT_SITES   0/1
HTMLEDIT   0/71
HUB203   466
HUB_100   264
HUB_400   39
HUMOR   0/29
IC   0/2851
INTERNET   0/424
INTERUSER   0/3
IP_CONNECT   719
JAMNNTPD   0/233
JAMTLAND   0/47
KATTY_KORNER   0/41
LAN   0/16
LINUX-USER   0/19
LINUXHELP   0/1155
LINUX   0/22471
LINUX_BBS   0/957
mail   18.68
mail_fore_ok   249
MENSA   0/341
MODERATOR   0/102
MONTE   0/992
MOSCOW_OKLAHOMA   0/1245
MUFFIN   0/783
MUSIC   0/321
N203_STAT   940
N203_SYSCHAT   313
NET203   321
NET204   69
NET_DEV   0/10
NORD.ADMIN   0/101
NORD.CHAT   0/2572
NORD.FIDONET   189
NORD.HARDWARE   0/28
NORD.KULTUR   0/114
NORD.PROG   0/32
NORD.SOFTWARE   0/88
NORD.TEKNIK   0/58
NORD   0/453
OCCULT_CHAT   0/93
OS2BBS   0/787
OS2DOSBBS   0/580
OS2HW   0/42
OS2INET   0/37
OS2LAN   0/134
OS2PROG   0/36
OS2REXX   0/113
OS2USER-L   207
OS2   0/4837
OSDEBATE   0/18996
PASCAL   0/490
PERL   0/457
PHP   0/45
POINTS   0/405
POLITICS   0/29554
POL_INC   0/14731
PSION   103
R20_ADMIN   1134
R20_AMATORRADIO   0/2
R20_BEST_OF_FIDONET   17
R20_CHAT   0/899
R20_DEPP   0/3
R20_DEV   400
R20_ECHO2   1992
R20_ECHOPRES   0/35
R20_ESTAT   0/719
R20_FIDONETPROG...
...RAM.MYPOINT
  0/2
R20_FIDONETPROGRAM   0/22
R20_FIDONET   0/248
R20_FILEFIND   0/24
R20_FILEFOUND   0/22
R20_HIFI   0/3
R20_INFO2   3886
R20_INTERNET   0/12940
R20_INTRESSE   0/60
R20_INTR_KOM   0/99
R20_KANDIDAT.CHAT   42
R20_KANDIDAT   28
R20_KOM_DEV   112
R20_KONTROLL   0/13380
R20_KORSET   0/18
R20_LOKALTRAFIK   0/24
R20_MODERATOR   0/1852
R20_NC   76
R20_NET200   245
R20_NETWORK.OTH...
...ERNETS
  0/13
R20_OPERATIVSYS...
...TEM.LINUX
  0/45
R20_PROGRAMVAROR   0/1
R20_REC2NEC   534
R20_SFOSM   0/341
R20_SF   0/108
R20_SPRAK.ENGLISH   0/1
R20_SQUISH   107
R20_TEST   2
R20_WORST_OF_FIDONET   21
RAR   0/9
RA_MULTI   106
RA_UTIL   0/162
REGCON.EUR   0/2072
REGCON   0/13
SCIENCE   0/1206
SF   0/239
SHAREWARE_SUPPORT   0/5146
SHAREWRE   0/14
SIMPSONS   0/169
STATS_OLD1   0/2539.065
STATS_OLD2   0/2530
STATS_OLD3   0/2395.095
STATS_OLD4   0/1692.25
SURVIVOR   0/495
SYSOPS_CORNER   0/3
SYSOP   0/84
TAGLINES   0/112
TEAMOS2   0/4530
TECH   0/2617
TEST.444   0/105
TRAPDOOR   0/19
TREK   0/755
TUB   0/290
UFO   0/40
UNIX   0/1316
USA_EURLINK   0/102
USR_MODEMS   0/1
VATICAN   0/2740
VIETNAM_VETS   0/14
VIRUS   0/378
VIRUS_INFO   0/201
VISUAL_BASIC   0/473
WHITEHOUSE   0/5187
WIN2000   0/101
WIN32   0/30
WIN95   0/4291
WIN95_OLD1   0/70272
WINDOWS   0/1517
WWB_SYSOP   0/419
WWB_TECH   0/810
ZCC-PUBLIC   0/1
ZEC   4

 
4DOS   0/134
ABORTION   0/7
ALASKA_CHAT   0/506
ALLFIX_FILE   0/1313
ALLFIX_FILE_OLD1   0/7997
ALT_DOS   0/152
AMATEUR_RADIO   0/1039
AMIGASALE   0/14
AMIGA   0/331
AMIGA_INT   0/1
AMIGA_PROG   0/20
AMIGA_SYSOP   0/26
ANIME   0/15
ARGUS   0/924
ASCII_ART   0/340
ASIAN_LINK   0/651
ASTRONOMY   0/417
AUDIO   0/92
AUTOMOBILE_RACING   0/105
BABYLON5   0/17862
BAG   135
BATPOWER   0/361
BBBS.ENGLISH   0/382
BBSLAW   0/109
BBS_ADS   0/5290
BBS_INTERNET   0/507
BIBLE   0/3563
BINKD   0/1119
BINKLEY   0/215
BLUEWAVE   0/2173
CABLE_MODEMS   0/25
CBM   0/46
CDRECORD   0/66
CDROM   0/20
CLASSIC_COMPUTER   0/378
COMICS   0/15
CONSPRCY   0/899
COOKING   42875
COOKING_OLD1   0/24719
COOKING_OLD2   0/40862
COOKING_OLD3   0/37489
COOKING_OLD4   0/35496
COOKING_OLD5   9370
C_ECHO   0/189
C_PLUSPLUS   0/31
DIRTY_DOZEN   0/201
DOORGAMES   0/2397
DOS_INTERNET   0/196
duplikat   6103
ECHOLIST   0/18295
EC_SUPPORT   0/318
ELECTRONICS   0/359
ELEKTRONIK.GER   1534
ENET.LINGUISTIC   0/13
ENET.POLITICS   0/4
ENET.SOFT   0/11701
ENET.SYSOP   34573
ENET.TALKS   0/32
ENGLISH_TUTOR   0/2000
EVOLUTION   0/1335
FDECHO   0/217
FDN_ANNOUNCE   0/7068
FIDONEWS   25344
FIDONEWS_OLD1   0/49742
FIDONEWS_OLD2   0/35949
FIDONEWS_OLD3   0/30874
FIDONEWS_OLD4   0/37224
FIDO_SYSOP   12979
FIDO_UTIL   0/180
FILEFIND   0/209
FILEGATE   0/212
Möte HAM, 16975 texter
 lista första sista föregående nästa
Text 3795, 866 rader
Skriven 2010-07-14 23:30:19 av Amsat List (1:323/120.0)
Ärende: [keps]  orb10196.amsa
=============================
[keps]  orb10196.amsa

Return-Path: <keps-bounces@amsat.org>
X-Rcpt: craig.healy@chowda.com
X-UIDL: 1279250548.45516

SB KEPS @ AMSAT  $ORB10196.O
Orbital Elements  10196.OSCAR

HR AMSAT ORBITAL ELEMENTS FOR OSCAR SATELLITES
FROM WA5QGD FORT WORTH,TX July 15, 2010
Send Subscribe/unsubscribe to KEPS at http://www.amsat.org/mailman/listinfo/kep
BID: ORB10196.O
TO ALL RADIO AMATEURS BT

Satellite: AO-07
Catalog number: 07530
Epoch time:      10196.13484308
Element set:     827
Inclination:      101.3991 deg
RA of node:       210.9160 deg
Eccentricity:    0.0011633
Arg of perigee:   218.8843 deg
Mean anomaly:     141.1396 deg
Mean motion:   12.53578858 rev/day
Decay rate:       -2.7e-07 rev/day^2
Epoch rev:           63195
Checksum:              300

Satellite: FO-29
Catalog number: 24278
Epoch time:      10195.91094103
Element set:    0360
Inclination:      098.5143 deg
RA of node:       021.2074 deg
Eccentricity:    0.0351469
Arg of perigee:   051.9793 deg
Mean anomaly:     311.2534 deg
Mean motion:   13.52951848 rev/day
Decay rate:        8.9e-07 rev/day^2
Epoch rev:           68685
Checksum:              320

Satellite: SO-33
Catalog number: 25509
Epoch time:      10196.49644198
Element set:     753
Inclination:      031.4328 deg
RA of node:       348.4352 deg
Eccentricity:    0.0354137
Arg of perigee:   177.5637 deg
Mean anomaly:     182.6787 deg
Mean motion:   14.28317175 rev/day
Decay rate:       3.34e-06 rev/day^2
Epoch rev:           61210
Checksum:              321

Satellite: RS-22
Catalog number: 27939
Epoch time:      10196.63565724
Element set:     364
Inclination:      097.8891 deg
RA of node:       060.9102 deg
Eccentricity:    0.0013138
Arg of perigee:   335.0031 deg
Mean anomaly:     025.0532 deg
Mean motion:   14.63433340 rev/day
Decay rate:        1.3e-07 rev/day^2
Epoch rev:           36311
Checksum:              270

Satellite: VO-52
Catalog number: 28650
Epoch time:      10195.75245715
Element set:     551
Inclination:      097.6905 deg
RA of node:       248.1098 deg
Eccentricity:    0.0026782
Arg of perigee:   183.9342 deg
Mean anomaly:     176.1657 deg
Mean motion:   14.81770461 rev/day
Decay rate:      -1.36e-06 rev/day^2
Epoch rev:           28077
Checksum:              331

Satellite: SO-67
Catalog number: 35870
Epoch time:      10196.86938131
Element set:     912
Inclination:      097.3303 deg
RA of node:       245.2447 deg
Eccentricity:    0.0003544
Arg of perigee:   028.5957 deg
Mean anomaly:     078.8117 deg
Mean motion:   15.20953739 rev/day
Decay rate:       4.58e-06 rev/day^2
Epoch rev:            4581
Checksum:              330

Satellite: HO-68
Catalog number: 36122
Epoch time:      10196.82719460
Element set:     488
Inclination:      100.4670 deg
RA of node:       256.9647 deg
Eccentricity:    0.0007136
Arg of perigee:   272.4492 deg
Mean anomaly:     087.5805 deg
Mean motion:   13.16281136 rev/day
Decay rate:       -4.5e-07 rev/day^2
Epoch rev:            2798
Checksum:              318

/EX
SB KEPS @ AMSAT  $ORB10196.D
Orbital Elements  10196.MICROS

HR AMSAT ORBITAL ELEMENTS FOR THE MICROSATS
FROM WA5QGD FORT WORTH,TX July 15, 2010
Send Subscribe/unsubscribe to KEPS at http://www.amsat.org/mailman/listinfo/kep
BID: ORB10196.D
TO ALL RADIO AMATEURS BT

Satellite: UO-11
Catalog number: 14781
Epoch time:      10196.69199645
Element set:     288
Inclination:      098.0534 deg
RA of node:       248.5184 deg
Eccentricity:    0.0009650
Arg of perigee:   141.0382 deg
Mean anomaly:     219.1527 deg
Mean motion:   14.79814746 rev/day
Decay rate:      -1.99e-06 rev/day^2
Epoch rev:           41602
Checksum:              328

Satellite: AO-16
Catalog number: 20439
Epoch time:      10195.44185115
Element set:    0945
Inclination:      098.3339 deg
RA of node:       152.2774 deg
Eccentricity:    0.0011940
Arg of perigee:   084.7219 deg
Mean anomaly:     275.5325 deg
Mean motion:   14.31866882 rev/day
Decay rate:        1.2e-07 rev/day^2
Epoch rev:           06928
Checksum:              312

Satellite: LO-19
Catalog number: 20442
Epoch time:      10196.41335011
Element set:     855
Inclination:      098.2950 deg
RA of node:       158.8984 deg
Eccentricity:    0.0012969
Arg of perigee:   077.5768 deg
Mean anomaly:     282.6878 deg
Mean motion:   14.32097374 rev/day
Decay rate:       -4.7e-07 rev/day^2
Epoch rev:            6959
Checksum:              351

Satellite: AO-27
Catalog number: 22825
Epoch time:      10196.43488605
Element set:     578
Inclination:      098.4872 deg
RA of node:       143.6577 deg
Eccentricity:    0.0007969
Arg of perigee:   179.2717 deg
Mean anomaly:     180.8463 deg
Mean motion:   14.29302451 rev/day
Decay rate:       1.07e-06 rev/day^2
Epoch rev:           87608
Checksum:              347

Satellite: IO-26
Catalog number: 22826
Epoch time:      10196.42529881
Element set:     314
Inclination:      098.4800 deg
RA of node:       144.2375 deg
Eccentricity:    0.0008859
Arg of perigee:   175.2578 deg
Mean anomaly:     184.8685 deg
Mean motion:   14.29558228 rev/day
Decay rate:       -2.4e-07 rev/day^2
Epoch rev:           87619
Checksum:              347

Satellite: GO-32
Catalog number: 25397
Epoch time:      10195.59031529
Element set:    0235
Inclination:      098.3109 deg
RA of node:       201.5309 deg
Eccentricity:    0.0001559
Arg of perigee:   141.3911 deg
Mean anomaly:     218.7363 deg
Mean motion:   14.23180425 rev/day
Decay rate:      -1.37e-06 rev/day^2
Epoch rev:           62394
Checksum:              287

